TimeMST,TemperatureF,Dew PointF,Humidity,Sea Level PressureIn,VisibilityMPH,Wind Direction,Wind SpeedMPH,Gust SpeedMPH,PrecipitationIn,Events,Conditions,WindDirDegrees,DateUTC
12:53 AM,26.1,15.1,63,30.11,10.0,West,3.5,-,N/A,,Clear,270,2013-11-28 07:53:00
1:53 AM,23.0,15.1,72,30.14,10.0,Calm,Calm,-,N/A,,Clear,0,2013-11-28 08:53:00
2:53 AM,23.0,16.0,74,30.14,10.0,Calm,Calm,-,N/A,,Clear,0,2013-11-28 09:53:00
3:53 AM,21.9,15.1,75,30.16,10.0,Calm,Calm,-,N/A,,Clear,0,2013-11-28 10:53:00
4:53 AM,21.0,15.1,78,30.20,10.0,Calm,Calm,-,N/A,,Clear,0,2013-11-28 11:53:00
5:53 AM,21.0,16.0,81,30.23,10.0,Calm,Calm,-,N/A,,Clear,0,2013-11-28 12:53:00
6:53 AM,18.0,14.0,84,30.25,10.0,NW,3.5,-,N/A,,Clear,310,2013-11-28 13:53:00
7:53 AM,24.1,17.1,75,30.25,10.0,Calm,Calm,-,N/A,,Clear,0,2013-11-28 14:53:00
8:53 AM,27.0,19.0,72,30.27,10.0,SSW,3.5,-,N/A,,Clear,210,2013-11-28 15:53:00
9:53 AM,32.0,19.9,61,30.25,10.0,South,3.5,-,N/A,,Clear,170,2013-11-28 16:53:00
10:53 AM,35.1,19.9,54,30.24,10.0,Variable,5.8,-,N/A,,Clear,0,2013-11-28 17:53:00
11:53 AM,37.9,19.9,48,30.21,10.0,Variable,5.8,-,N/A,,Clear,0,2013-11-28 18:53:00
12:53 PM,39.0,18.0,43,30.18,10.0,SSW,6.9,-,N/A,,Clear,210,2013-11-28 19:53:00
1:53 PM,39.9,15.1,36,30.18,10.0,SW,9.2,-,N/A,,Clear,230,2013-11-28 20:53:00
2:53 PM,39.9,16.0,38,30.17,10.0,Variable,3.5,-,N/A,,Clear,0,2013-11-28 21:53:00
3:53 PM,35.1,18.0,50,30.20,10.0,Variable,4.6,-,N/A,,Clear,0,2013-11-28 22:53:00
4:53 PM,30.0,19.9,66,30.23,10.0,SW,3.5,-,N/A,,Clear,220,2013-11-28 23:53:00
5:53 PM,27.0,19.9,75,30.25,10.0,WSW,3.5,-,N/A,,Clear,240,2013-11-29 00:53:00
6:53 PM,27.0,19.9,75,30.25,10.0,WSW,4.6,-,N/A,,Clear,250,2013-11-29 01:53:00
7:53 PM,26.1,19.9,78,30.22,10.0,West,5.8,-,N/A,,Clear,280,2013-11-29 02:53:00
8:53 PM,27.0,21.0,78,30.19,10.0,West,5.8,-,N/A,,Clear,270,2013-11-29 03:53:00
9:53 PM,28.9,21.9,75,30.14,10.0,West,5.8,-,N/A,,Clear,270,2013-11-29 04:53:00
10:53 PM,32.0,23.0,69,30.11,10.0,West,8.1,-,N/A,,Clear,270,2013-11-29 05:53:00
11:53 PM,30.0,21.9,72,30.09,10.0,West,8.1,-,N/A,,Clear,280,2013-11-29 06:53:00